Simultaneous Nadir Overpasses (SNOs) Predictions

Prediction of SNOs between NOAA-19 and NPP Satellite Orbit:

Table of predicted SNOs for the next 14.0 days since TLE Epoch: 9/10/2022
Index Date (NOAA-19) Time (NOAA-19) Lat,Lon (NOAA-19) SZA (NOAA-19 ) Date (NPP) Time (NPP) Lat,Lon (NPP) SZA (NPP ) Distance(km) Time Diff (sec)
1 09/21/2022 06:34:20 76.06, 61.85 75.99 09/21/2022 06:35:28 76.13, 64.27 75.87 65.06 68
2 09/21/2022 07:25:12 -76.44,-129.44 103.74 09/21/2022 07:26:19 -76.43,-129.48 103.77 1.81 67
3 09/21/2022 08:16:11 76.44, 37.82 76.28 09/21/2022 08:17:05 76.45, 37.74 76.28 2.41 54
4 09/21/2022 09:07:12 -76.43,-154.98 103.72 09/21/2022 09:07:49 -76.43,-154.87 103.74 3.04 37
5 09/21/2022 09:58:11 76.43, 12.28 76.30 09/21/2022 09:58:35 76.46, 12.35 76.31 3.16 24
6 09/21/2022 10:49:11 -76.46, 179.65 103.67 09/21/2022 10:49:20 -76.48, 179.58 103.65 2.61 9
7 09/21/2022 11:40:10 76.47, -13.08 76.35 09/21/2022 11:40:05 76.46, -13.03 76.34 1.37 5
8 09/21/2022 12:31:10 -76.49, 154.28 103.62 09/21/2022 12:30:50 -76.48, 154.19 103.62 2.57 20
9 09/21/2022 13:22:08 76.50, -38.45 76.40 09/21/2022 13:21:35 76.51, -38.59 76.43 3.87 33
10 09/21/2022 14:13:09 -76.48, 128.74 103.61 09/21/2022 14:12:19 -76.49, 128.81 103.59 1.81 50
11 09/21/2022 15:04:08 76.49, -63.99 76.42 09/21/2022 15:03:05 76.51, -63.98 76.46 2.69 63
12 09/21/2022 15:55:05 -76.64, 103.90 103.47 09/21/2022 15:53:52 -76.62, 102.92 103.40 25.38 73



Historial Predications of SNOs between NOAA-19 and NPP
